sat.trackr.live / text

‹ back to catalog

OCEANSAT-2

NORAD 35931 · 2009-051A

PAYLOAD ACTIVE UNKNOWN

§ Identity

Operator
Country
IND
Launch date
2009-09-23
Launch site
SRILR
Launch vehicle
Mass (kg)
RCS (m²)
4.06

Purposes: earth_obs

External: N2YO · Heavens-Above · Gunter

§ Orbital elements

Epoch: 2026-09-20T04:53:53.896128Z

Period
102.88 min
Inclination
98.2426°
Eccentricity
0.0015117
Mean motion
13.99665853 rev/d
Perigee alt
884.0 km
Apogee alt
905.9 km
Semi-major
7,273.1 km
B*
-4.3691e-5
RAAN
240.6082°
Arg perigee
330.5374°
Mean anomaly
29.4939°
Rev number
89,262

§ Raw data

OCEANSAT-21 35931U 09051A   26263.20409602 -.00000102  00000+0 -43691-4 0  99992 35931  98.2426 240.6082 0015117 330.5374  29.4939 13.99665853892624

JSON: /api/v1/satellites/35931 · /tle

For live sub-satellite position, see the globe view (requires WebGL).

§ Visibility from observer

Set your observer location to see the next 7 days of passes ≥ 10°. The values pass through the URL so the page stays shareable.

No JS? Fill the form by hand. The geolocation button needs JavaScript.

§ Radio — SatNOGS DB

ModeDescriptionDownlinkUplink
FM Mode S dumps 2.245 GHz
BPSK S-band telemetry 2.250 GHz

2 transmitters · refreshed weekly from db.satnogs.org